Simultaneous Nadir Overpasses (SNOs) Predictions

Prediction of SNOs between GOES-16 and FY3D Satellite Orbit:

Table of predicted SNOs for the next 14.0 days since TLE Epoch: 4/27/2019
Index Date Time (GOES-16) GOES-16 Lat,Lon FY3D Lat,Lon Distance(km) Time Diff (sec)
1 04/28/2019 18:32:25 -0.00, -75.21 -0.17, -75.99 88.81 80
2 04/29/2019 18:16:10 -0.00, -75.21 0.87, -71.42 432.69 80
3 05/01/2019 06:37:42 -0.00, -75.21 0.31, -76.63 161.32 80
4 05/02/2019 06:16:08 0.00, -75.22 -0.73, -72.06 360.42 80
5 05/03/2019 18:37:48 -0.00, -75.24 -0.48, -77.30 234.52 80
6 05/04/2019 18:21:34 -0.00, -75.26 0.55, -72.73 287.59 80
7 05/06/2019 06:43:06 0.00, -75.26 0.61, -77.94 305.44 80
8 05/07/2019 06:21:32 0.00, -75.27 -0.42, -73.37 216.52 80
9 05/08/2019 18:43:13 0.00, -75.30 -0.73, -78.62 378.49 80
10 05/09/2019 18:26:58 0.01, -75.31 0.31, -74.06 143.68 80




NCC Satellite Simultaneous Nadir Overpasses (SNOs) Prediction Service
